User: anonymous   Login
Location: Obersdorf
(47.4079°N, 10.2781°E)
Time: 04:56:41
(UTC+01:00)
Language:

CAS-6 - Orbit

View from above orbital plane
View from above orbital plane
View from above satellite
View from above satellite

Ground track
Ground track

The orbit data is extracted from the following two-line orbital elements,

1 44881U 19093C   21339.75163424  .00000215  00000-0  34162-4 0  9995
2 44881  97.9127  56.6019 0016505  95.4752 264.8349 14.81518964106097
Epoch (UTC): 05 December 2021 18:02:21
Eccentricity: 0.0016505
inclination: 97.9127°
perigee height: 613 km
apogee height: 636 km
right ascension of ascending node: 56.6019°
argument of perigee: 95.4752°
revolutions per day: 14.81518964
mean anomaly at epoch: 264.8349°
orbit number at epoch: 10609

The dashed part of the orbit path shows where the satellite is in the earth's shadow,  

DLR